Weather History for CYXU - October, 2012

Change the Weather History Date:

Thursday, October 25, 2012

  Actual Average Record
Temperature  
Mean Temperature 62 °F -  
Max Temperature 74 °F 52 °F 74 °F (2012)
Min Temperature 49 °F 36 °F 28 °F (2002)
Degree Days  
Heating Degree Days 4    
Growing Degree Days 12 (Base 50)    
Moisture  
Dew Point 52 °F    
Average Humidity 77    
Maximum Humidity 100    
Minimum Humidity 35    
Precipitation  
Precipitation 0.00 in - - ()
Sea Level Pressure  
Sea Level Pressure 30.01 in    
Wind  
Wind Speed 9 mph ()    
Max Wind Speed 18 mph    
Max Gust Speed 26 mph    
Visibility 9.0 miles    
Events Fog    
Averages and records for this station are not official NWS values.
T = Trace of Precipitation, MM = Missing Value Source: Averaged Metar Reports

Daily Weather History Graph

Daily Weather History Graph

Search for Another Location

Airport or City:

Trip Planner

Search our weather history database for the weather conditions in past years. The results will help you decide how hot, cold, wet, or windy it might be!

Date:

Astronomy

Oct. 25, 2012 Rise Set
Actual Time 7:50 AM EDT 6:25 PM EDT
Civil Twilight 7:21 AM EDT 6:54 PM EDT
Nautical Twilight 6:48 AM EDT 7:27 PM EDT
Astronomical Twilight 6:15 AM EDT 8:00 PM EDT
Moon 4:15 PM EDT (10/25) 3:40 AM EDT (10/25)
Length of Visible Light 11h 32m
Length of Day
10h 34m
Waxing Gibbous, 84% of the Moon is Illuminated
Oct 25
Waxing Gibbous
Oct 29
Full
Nov 6
Last Quarter
Nov 13
New
Nov 20
First Quarter

Hourly Weather History & Observations

Time (EDT) Temp. Dew Point Humidity Pressure Visibility Wind Dir Wind Speed Gust Speed Precip Events Conditions
12:00 AM 51.8 °F 51.8 °F 100% 30.08 in 0.4 mi East 10.4 mph - N/A Fog Fog
1:00 AM 51.8 °F 51.8 °F 100% 30.06 in 0.4 mi ESE 10.4 mph - N/A Fog Fog
2:00 AM 51 °F 51 °F 100% 30.06 in 0 mi ESE 8.1 mph - -  
2:00 AM 51.8 °F 51.8 °F 100% 30.06 in 0.4 mi ESE 10.4 mph - N/A Fog Fog
3:00 AM 51.8 °F 51.8 °F 100% 30.06 in 0.5 mi ESE 5.8 mph - N/A Fog Fog
4:00 AM 50.0 °F 50.0 °F 100% 30.05 in 0.2 mi East 6.9 mph - N/A Fog Fog
5:00 AM 50.0 °F 50.0 °F 100% 30.05 in 1.0 mi East 6.9 mph - N/A   Scattered Clouds
5:24 AM 50.0 °F 50.0 °F 100% 30.05 in 3.0 mi East 8.1 mph - N/A   Partly Cloudy
6:00 AM 50.0 °F 50.0 °F 100% 30.06 in 3.0 mi ESE 5.8 mph - N/A   Mostly Cloudy
7:00 AM 50.0 °F 50.0 °F 100% 30.06 in 4.0 mi ESE 5.8 mph - N/A   Mostly Cloudy
8:00 AM 49 °F 49 °F 100% 30.06 in 5 mi ESE 5.8 mph - -  
8:00 AM 50.0 °F 50.0 °F 100% 30.05 in 5.0 mi ESE 6.9 mph - N/A   Scattered Clouds
9:00 AM 53.6 °F 53.6 °F 100% 30.06 in 6.0 mi SSE 3.5 mph - N/A   Scattered Clouds
10:00 AM 62.6 °F 55.4 °F 77% 30.05 in 10.0 mi South 10.4 mph - N/A   Partly Cloudy
11:00 AM 66.2 °F 57.2 °F 73% 30.04 in 15.0 mi South 10.4 mph - N/A   Clear
12:00 PM 71.6 °F 55.4 °F 57% 30.04 in 15.0 mi South 11.5 mph - N/A   Partly Cloudy
1:00 PM 73.4 °F 57.2 °F 57% 30.02 in 15.0 mi SSW 17.3 mph 24.2 mph N/A   Partly Cloudy
2:00 PM 74 °F 52 °F 35% 29.99 in 15 mi South 18.4 mph - -  
2:00 PM 73.4 °F 51.8 °F 47% 29.99 in 15.0 mi South 18.4 mph 26.5 mph N/A   Partly Cloudy
3:00 PM 73.4 °F 51.8 °F 47% 29.97 in 15.0 mi South 16.1 mph 24.2 mph N/A   Partly Cloudy
4:00 PM 73.4 °F 51.8 °F 47% 29.97 in 15.0 mi SSW 16.1 mph 24.2 mph N/A   Partly Cloudy
5:00 PM 73.4 °F 51.8 °F 47% 29.95 in 15.0 mi South 12.7 mph - N/A   Partly Cloudy
6:00 PM 68.0 °F 53.6 °F 60% 29.94 in 15.0 mi SSE 10.4 mph - N/A   Scattered Clouds
7:00 PM 64.4 °F 51.8 °F 64% 29.94 in 12.0 mi SSE 10.4 mph - N/A   Scattered Clouds
8:00 PM 62 °F 51 °F 57% 29.94 in 15 mi SSE 10.4 mph - -  
8:00 PM 62.6 °F 50.0 °F 63% 29.94 in 15.0 mi SSE 9.2 mph - N/A   Partly Cloudy
9:00 PM 60.8 °F 50.0 °F 68% 29.93 in 15.0 mi South 8.1 mph - N/A   Partly Cloudy
10:00 PM 59.0 °F 50.0 °F 72% 29.92 in 15.0 mi SSE 5.8 mph - N/A   Partly Cloudy
11:00 PM 60.8 °F 50.0 °F 68% 29.92 in 15.0 mi SSW 5.8 mph - N/A   Mostly Cloudy